Location: Unspecified
(0.0000°N, 0.0000°E)
Time: 11:19:17
(UTC+00:00)

Tiros 1 despin weight - Pass Details

Date: 22 November 2019
Orbit: 594 x 642 km, 48.2° (Epoch: 13 December)

Event Time Altitude Azimuth Distance (km) Brightness Sun altitude
Rises 08:08:18 0° 202° (SSW) 2,875 ? 33.1°
Reaches altitude 10° 08:10:50 10° 192° (SSW) 1,960 ? 33.7°
Maximum altitude 08:14:48 31° 130° (SE) 1,071 ? 34.6°
Drops below altitude 10° 08:18:43 10° 67° (ENE) 1,930 ? 35.5°
Sets 08:21:11 0° 57° (ENE) 2,824 ? 36.0°
